Regional Weather Roundup
Issued by NWS

Home | Current Version | Previous Version | Text Only | Print | Product List | Glossary Off
Versions: 1 2 3 4 5 6 7 8 9 10 11 12 13 14 15 16 17 18 19 20 21 22 23 24 25 26 27 28 29 30 31 32 33 34 35 36 37 38 39 40 41 42 43 44 45 46 47 48 49 50

000
ASUS43 KBIS 040510
RWRND

NORTH DAKOTA REGIONAL WEATHER ROUNDUP
NATIONAL WEATHER SERVICE BISMARCK ND
1200 AM CDT WED MAY 04 2016

NOTE: "FAIR" INDICATES FEW OR NO CLOUDS BELOW 12,000 FEET WITH NO
SIGNIFICANT WEATHER AND/OR OBSTRUCTIONS TO VISIBILITY.


NDZ001>003-009>011-017-040600-
NORTHWEST NORTH DAKOTA

CITY           SKY/WX    TMP DP  RH WIND       PRES   REMARKS
WILLISTON      CLEAR     51  41  68 N5        30.05S
MINOT          CLEAR     55  26  32 E5        30.06R
MINOT AFB      CLEAR     47  28  47 SE6       30.05R
$$

NDZ018>021-031>035-040>046-040600-
SOUTHWEST NORTH DAKOTA

CITY           SKY/WX    TMP DP  RH WIND       PRES   REMARKS
BISMARCK       CLEAR     50  30  46 S3        30.07R
DICKINSON      CLEAR     55  37  50 E6        30.07R
GARRISON         N/A     49  32  52 NE6       30.06R
HETTINGER ARPT CLEAR     47  37  68 CALM      30.10R
$$

NDZ004>008-012>016-024-026-027-054-040600-
NORTHEAST NORTH DAKOTA

CITY           SKY/WX    TMP DP  RH WIND       PRES   REMARKS
GRAND FORKS    CLEAR     40  29  64 N6        30.01R
GRND FRKS AFB  CLEAR     47  32  56 N10       30.01S
DEVILS LAKE    CLEAR     46  32  58 NE6       30.05S
$$

NDZ022-023-025-028>030-036>039-047>053-040600-
SOUTHEAST NORTH DAKOTA

CITY           SKY/WX    TMP DP  RH WIND       PRES   REMARKS
FARGO          CLEAR     53  27  36 N16       29.98R
JAMESTOWN      CLEAR     46  29  51 N10       30.02R
$$




USA.gov is the U.S. government's official web portal to all federal, state and local government web resources and services.